Regional Weather Roundup
Issued by NWS

Home | Current Version | Previous Version | Text Only | Print | Product List | Glossary On
Versions: 1 2 3 4 5 6 7 8 9 10 11 12 13 14 15 16 17 18 19 20 21 22 23 24 25 26 27
000
ASCA42 TJSJ 170810
RWRPR
PUERTO RICO/U.S. VIRGIN ISLANDS HOURLY WEATHER ROUNDUP
NATIONAL WEATHER SERVICE SAN JUAN PR
400 AM AST SUN DEC 17 2017

PRZ001>002-007>008-010-170900-
PUERTO RICO

CITY           SKY/WX    TMP DP  RH WIND       PRES   REMARKS
SAN JUAN LMM   PTCLDY    79  73  83 E10       30.01F
PONCE          CLEAR     72  70  94 E6        30.03
$$

VIZ001>002-170900-
U.S. VIRGIN ISLANDS

CITY           SKY/WX    TMP DP  RH WIND       PRES   REMARKS
CHARLOTTE AMA  PTCLDY    79  72  78 E13G22    30.00F
CHRISTIANSTED  PTCLDY    79  70  73 NE12      29.99F
$$

HOURLY WEATHER ROUNDUP FOR THE NEWS MEDIA

CITY           SKY/WX    TMP DP  RH WIND       PRES   REMARKS
ORLANDO        CLEAR     57  53  86 CALM      30.26S
NEW YORK       CLOUDY    34  22  61 N6        30.26R WCI  29
NEWARK         CLOUDY    33  23  66 NE5       30.25R WCI  29
CHICAGO        CLOUDY    32  29  88 N5        30.05S WCI  27
HARTFORD       CLEAR     21  12  68 NW6       30.21R WCI  13
BOSTON         CLEAR     22   8  55 W13       30.21R WCI  10
DALLAS         CLOUDY    45  43  93 SE12      30.02F
PHILADELPHIA   PTCLDY    35  26  69 CALM      30.24R
LOS ANGELES    CLEAR     58  49  72 CALM      29.79F
WASHINGTON DC  PTCLDY    24  21  88 CALM      30.24R



USA.gov is the U.S. government's official web portal to all federal, state and local government web resources and services.